Flag for Australia Weather past 2 weeks in Sydney, New South Wales, Australia

Now
77 °F

Sunny.


Feels Like: 77 °F
Forecast: 49 / 63 °F
Wind: 20 mph from Northwest

Location: Sydney Airport

Current Time: Aug 2, 2015 at 4:46:28 PM

Latest Report: Aug 2, 2015 at 4:00 PM


Visibility: 10 mi

Pressure: 29.80 "Hg

Humidity: 24%

Dew point: 37 °F

Location of SydneyLocation

Historic Weather in Sydney — Graph

°F

Sydney temperature yesterday

Maximum temperature yesterday: 73 °F (at 2:00 PM)
Minimum temperature yesterday: 46 °F (at 4:30 AM)
Average temperature yesterday: 61 °F

Past Weeks' High & Low Weather Summary

 TemperatureHumidityPressure
High77 °F (Aug 2, 3:00 PM)100% (Jul 21, 12:00 AM)30.54 "Hg (Jul 21, 12:00 AM)
Low45 °F (Jul 19, 3:30 AM)20% (Aug 1, 2:00 PM)29.80 "Hg (Aug 2, 3:00 PM)
Average57 °F62%30.24 "Hg
* Reported Jul 18 4:00 PM — Aug 2 4:00 PM, Sydney, Weather by CustomWeather, © 2015

Note: Actual official high and low records may vary slightly from our data, if they occured in-between our weather recording intervals... More about our weather records

Advertising

Sydney weather history for previous 24 hours

 ConditionsComfort  
Time TempWeatherWind HumidityBarometerVisibility
4:00 PM
Sun, Aug 2
77 °FSunny.20 mph24%29.80 "Hg10 mi
3:30 PM77 °FSunny.17 mph22%29.80 "Hg10 mi
3:00 PM77 °FSunny.17 mph24%29.80 "Hg10 mi
2:30 PM75 °FSunny.12 mph27%29.83 "Hg10 mi
2:00 PM70 °FSunny.6 mph46%29.83 "Hg10 mi
1:30 PM68 °FSunny.7 mph46%29.86 "Hg10 mi
1:00 PM66 °FSunny.6 mph52%29.86 "Hg10 mi
12:30 PM66 °FSunny.3 mph46%29.86 "Hg10 mi
12:00 PM66 °FPassing clouds.6 mph46%29.89 "HgN/A
11:30 AM66 °FPassing clouds.6 mph43%29.89 "HgN/A
11:00 AM63 °FSunny.5 mph56%29.92 "Hg10 mi
10:30 AM64 °FSunny.7 mph46%29.95 "Hg10 mi
10:00 AM61 °FSunny.5 mph55%29.95 "Hg10 mi
9:30 AM57 °FSunny.6 mph72%29.98 "Hg10 mi
8:30 AM57 °FPassing clouds.6 mph67%29.98 "HgN/A
8:00 AM55 °FSunny.6 mph72%29.98 "Hg10 mi
7:30 AM54 °FSunny.6 mph72%29.98 "Hg10 mi
7:00 AM54 °FSunny.6 mph72%29.98 "Hg10 mi
6:30 AM54 °FSunny.3 mph77%29.98 "Hg10 mi
6:00 AM54 °FSunny.2 mph72%29.98 "Hg10 mi
5:30 AM55 °FClear.7 mph67%29.98 "Hg10 mi
5:00 AM55 °FClear.7 mph72%29.98 "Hg10 mi
4:30 AM57 °FClear.5 mph59%29.98 "Hg10 mi
4:00 AM57 °FClear.5 mph59%29.98 "Hg10 mi
3:30 AM57 °FClear.2 mph59%29.98 "Hg10 mi
3:00 AM59 °FClear.6 mph55%29.98 "Hg10 mi
2:30 AM59 °FClear.No wind55%30.01 "Hg10 mi
2:00 AM57 °FClear.6 mph82%30.01 "Hg10 mi
1:30 AM57 °FClear.6 mph55%30.01 "Hg10 mi
1:00 AM61 °FClear.8 mph45%30.01 "Hg10 mi
12:30 AM61 °FClear.9 mph45%30.01 "Hg10 mi
12:00 AM61 °FClear.8 mph45%30.01 "Hg10 mi
11:30 PM
Sat, Aug 1
61 °FClear.No wind48%30.01 "Hg10 mi
11:00 PM63 °FClear.No wind45%30.04 "Hg10 mi
10:30 PM63 °FClear.3 mph52%30.04 "Hg10 mi
10:00 PM64 °FClear.3 mph40%30.04 "Hg10 mi
9:30 PM66 °FPassing clouds.6 mph35%30.04 "HgN/A
9:00 PM66 °FClear.8 mph35%30.04 "Hg10 mi
8:30 PM66 °FClear.9 mph35%30.04 "Hg10 mi
8:00 PM66 °FClear.10 mph32%30.01 "Hg10 mi
7:30 PM66 °FClear.12 mph32%30.01 "Hg10 mi
7:00 PM68 °FClear.10 mph30%30.01 "Hg10 mi
6:30 PM68 °FClear.9 mph28%30.01 "Hg10 mi
6:00 PM68 °FClear.9 mph28%30.01 "Hg10 mi
5:30 PM68 °FClear.13 mph28%29.98 "Hg10 mi
5:00 PM70 °FClear.15 mph25%29.98 "Hg10 mi
4:30 PM70 °FClear.17 mph23%29.98 "Hg10 mi
4:00 PM70 °FSunny.18 mph23%29.98 "Hg10 mi
Weather by CustomWeather, © 2015

See weather overviewHow to use our weather pages